TimeEST,TemperatureF,Dew PointF,Humidity,Sea Level PressureIn,VisibilityMPH,Wind Direction,Wind SpeedMPH,Gust SpeedMPH,PrecipitationIn,Events,Conditions,WindDirDegrees,DateUTC
12:54 AM,30.0,14.0,51,29.55,10.0,WNW,16.1,27.6,0.00,Snow,Light Snow,290,2012-11-25 05:54:00
1:54 AM,30.0,12.9,49,29.58,10.0,WNW,11.5,23.0,0.00,,Overcast,290,2012-11-25 06:54:00
2:54 AM,28.9,14.0,54,29.59,9.0,WNW,17.3,28.8,0.00,Snow,Light Snow,290,2012-11-25 07:54:00
3:54 AM,28.9,12.0,49,29.60,10.0,West,11.5,20.7,0.00,,Overcast,280,2012-11-25 08:54:00
4:54 AM,28.0,12.0,51,29.62,10.0,WNW,8.1,20.7,0.00,,Overcast,290,2012-11-25 09:54:00
5:54 AM,28.0,12.9,53,29.63,10.0,Variable,3.5,-,N/A,,Overcast,0,2012-11-25 10:54:00
6:54 AM,27.0,10.9,51,29.65,10.0,Variable,6.9,-,N/A,,Mostly Cloudy,0,2012-11-25 11:54:00
7:54 AM,28.0,10.9,49,29.65,10.0,Calm,Calm,-,N/A,,Mostly Cloudy,0,2012-11-25 12:54:00
8:54 AM,30.0,10.9,45,29.65,10.0,WNW,13.8,21.9,N/A,,Partly Cloudy,290,2012-11-25 13:54:00
9:54 AM,32.0,12.0,44,29.64,10.0,West,11.5,20.7,N/A,,Clear,280,2012-11-25 14:54:00
10:54 AM,32.0,10.9,42,29.65,10.0,West,9.2,19.6,N/A,,Clear,280,2012-11-25 15:54:00
11:54 AM,32.0,10.0,40,29.64,10.0,WNW,10.4,18.4,N/A,,Clear,290,2012-11-25 16:54:00
12:54 PM,33.1,8.1,35,29.64,10.0,West,12.7,23.0,N/A,,Clear,260,2012-11-25 17:54:00
1:54 PM,34.0,8.1,34,29.64,10.0,WSW,10.4,19.6,N/A,,Clear,250,2012-11-25 18:54:00
2:54 PM,33.1,8.1,35,29.66,10.0,West,10.4,19.6,N/A,,Clear,270,2012-11-25 19:54:00
3:54 PM,30.9,8.1,38,29.66,10.0,WNW,8.1,-,N/A,,Clear,290,2012-11-25 20:54:00
4:54 PM,30.0,7.0,38,29.68,10.0,West,9.2,-,N/A,,Clear,270,2012-11-25 21:54:00
5:54 PM,28.9,7.0,40,29.70,10.0,WNW,8.1,-,N/A,,Clear,290,2012-11-25 22:54:00
6:54 PM,28.9,6.1,38,29.72,10.0,WNW,6.9,-,N/A,,Clear,290,2012-11-25 23:54:00
7:54 PM,28.0,6.1,39,29.74,10.0,West,5.8,-,N/A,,Clear,280,2012-11-26 00:54:00
8:54 PM,27.0,6.1,41,29.74,10.0,WNW,6.9,-,N/A,,Clear,300,2012-11-26 01:54:00
9:54 PM,28.0,7.0,41,29.77,10.0,WNW,8.1,-,N/A,,Clear,290,2012-11-26 02:54:00
10:54 PM,26.1,8.1,47,29.78,10.0,NW,5.8,-,N/A,,Clear,310,2012-11-26 03:54:00
11:54 PM,26.1,9.0,49,29.80,10.0,West,4.6,-,N/A,,Clear,270,2012-11-26 04:54:00